[[{"header":{"parameterUnit":"m.s-1","parameterCategory":1,"la1":30.2991,"la2":30.254,"lo1":-89.0895,"lo2":-89.0444,"dy":0.0017,"dx":0.0017,"nx":28,"ny":28,"refTime":"2024-08-30T09:00:00:Z","depth":0,"parameterNumber":2,"parameterNumberName":"U-component_of_WINDS"},"data":[0,0,0,0,0,0,0,0,0,0,0,0,0,0,0,0,0,0,0,0,0,0,0,0,0,0,0,0,0,0,0,0,0,0,0,0,0,0,0,0,0,0,0,0,0,0,0,0,0,0,0,0,0,0,0,0,0,0,-3.4208,-3.4208,0,-3.4242,-3.4242,-3.4242,-3.4133,-3.413,-3.4126,-3.4123,-3.4161,-3.4165,-3.4169,0,0,0,0,0,0,0,0,0,0,0,0,0,-3.4051,-3.4054,-3.4208,-3.4208,-3.4209,-3.4242,-3.4242,-3.4243,-3.4134,-3.413,-3.4126,-3.4122,-3.416,-3.4165,-3.417,0,0,0,0,0,0,0,0,0,0,0,0,0,-3.4105,-3.4055,-3.4208,-3.4158,-3.4154,-3.4242,-3.4242,-3.4243,-3.4134,-3.4129,-3.4124,-3.412,-3.4158,-3.4164,-3.417,-3.4308,0,0,-3.4189,-3.4192,0,0,0,0,0,0,0,0,-3.4102,-3.4111,-3.4165,-3.4162,-3.4157,-3.4178,-3.42,-3.4265,-3.4136,-3.4142,-3.4123,-3.4117,-3.4171,-3.4176,-3.4193,-3.431,-3.4311,-3.419,-3.4193,-3.4196,-3.4198,0,0,0,0,0,0,0,-3.4099,-3.4109,-3.4221,-3.4166,-3.4161,-3.4135,-3.4137,-3.4212,-3.4184,-3.4141,-3.4133,-3.4139,-3.4168,-3.4187,-3.4193,-3.4312,-3.4189,-3.4195,-3.4199,-3.4201,-3.4539,-3.4545,0,0,0,0,0,0,-3.4101,-3.4107,-3.422,-3.4222,-3.4117,-3.4142,-3.4144,-3.4177,-3.4183,-3.4179,-3.4143,-3.4133,-3.4179,-3.4186,-3.4194,-3.4353,-3.4196,-3.4202,-3.4205,-3.4534,-3.4541,-3.4546,0,0,0,0,0,0,-3.4098,-3.4112,-3.4219,-3.4162,-3.4174,-3.415,-3.4187,-3.418,-3.4199,-3.4184,-3.4179,-3.4168,-3.4176,-3.4185,-3.4279,-3.4353,-3.4204,-3.421,-3.4528,-3.4536,-3.4544,-3.4673,0,0,0,0,0,0,-3.4094,-3.4112,-3.4164,-3.4164,-3.4177,-3.4304,-3.4191,-3.4184,-3.421,-3.4198,-3.4206,-3.4203,-3.4173,-3.4271,-3.4286,-3.4358,-3.4215,-3.4521,-3.4532,-3.4541,-3.4662,-3.4685,-3.4704,0,0,0,0,0,-3.4089,-3.4201,-3.4167,-3.4181,-3.4242,-3.4308,-3.4316,-3.4277,-3.4216,-3.4268,-3.4258,-3.4203,-3.4343,-3.4281,-3.4297,-3.4373,-3.4516,-3.4529,-3.454,-3.4653,-3.468,-3.4704,0,0,0,0,0,0,-3.4211,-3.42,-3.4162,-3.4278,-3.4294,-3.429,-3.4354,-3.4308,-3.4344,-3.4331,-3.4283,-3.4286,-3.4388,-3.439,-3.4322,-3.4505,-3.4419,-3.4435,-3.4499,-3.4525,-3.4546,-3.4542,-3.422,0,0,0,0,0,-3.4251,-3.4305,-3.4293,-3.4396,-3.4406,-3.4379,-3.4407,-3.4375,-3.4391,-3.4398,-3.4395,-3.4414,-3.4461,-3.4494,-3.4537,-3.4663,-3.4662,-3.4723,-3.4743,-3.476,-3.4774,-3.4838,-3.4864,-3.4586,-3.4585,-3.4585,0,0,-3.4335,-3.4336,-3.4373,-3.442,-3.443,-3.4487,-3.4386,-3.4451,-3.4493,-3.4408,-3.4495,-3.4494,-3.4511,-3.4621,-3.4669,-3.4626,-3.4851,-3.4776,-3.4789,-3.4794,-3.4853,-3.4879,-3.4902,-3.4594,-3.4592,-3.4591,0,0,-3.4516,-3.4523,-3.4608,-3.4619,-3.4633,-3.4614,-3.4635,-3.4636,-3.4631,-3.4718,-3.4655,-3.4704,-3.4788,-3.4802,-3.482,-3.5004,-3.4954,-3.502,-3.5128,-3.5191,-3.5212,-3.5231,-3.5294,-3.5318,-3.5034,-3.5034,-3.5035,0,-3.4619,-3.4701,-3.4658,-3.4726,-3.4748,-3.4673,-3.4757,-3.477,-3.48,-3.4816,-3.4767,-3.4868,-3.4875,-3.4985,-3.503,-3.5048,-3.5069,-3.5018,-3.5213,-3.5231,-3.5249,-3.5308,-3.5332,-3.5042,-3.5041,-3.504,-3.504,0,-3.4825,-3.4884,-3.495,-3.4977,-3.5007,-3.5084,-3.5051,-3.5087,-3.5053,-3.5039,-3.5127,-3.5132,-3.5173,-3.5197,-3.5166,-3.5303,-3.5275,-3.5221,-3.5133,-3.5283,-3.5338,-3.5361,-3.5053,-3.505,-3.5048,-3.5046,0,0,-3.5085,-3.5085,-3.511,-3.512,-3.513,-3.5174,-3.5247,-3.5286,-3.5315,-3.5338,-3.5397,-3.5468,-3.5417,-3.5437,-3.5407,-3.5462,-3.5604,-3.54,-3.54,-3.5436,-3.5752,-3.5791,-3.5818,-3.5572,-3.5576,-3.5579,-3.5749,0,-3.526,-3.5383,-3.5344,-3.5468,-3.552,-3.5449,-3.5512,-3.5525,-3.5513,-3.5556,-3.5544,-3.5594,-3.5524,-3.5535,-3.5587,-3.5576,-3.5667,-3.5564,-3.5625,-3.5627,-3.562,-3.5847,-3.589,-3.605,-3.5771,-3.5775,-3.5777,0,-3.5482,-3.551,-3.5639,-3.5636,-3.5657,-3.5714,-3.5745,-3.5787,-3.58,-3.5788,-3.581,-3.5767,-3.5838,-3.5751,-3.5847,-3.5777,-3.58,-3.5799,-3.5804,-3.5806,-3.571,-3.5854,-3.6101,-3.6124,-3.5811,-3.5808,-3.5806,0,-3.5654,-3.5725,-3.581,-3.5821,-3.5822,-3.5863,-3.5866,-3.5873,-3.5898,-3.5926,-3.5941,-3.5978,-3.5998,-3.6027,-3.5995,-3.5936,-3.6095,-3.6007,-3.6086,-3.6087,-3.6121,-3.6119,-3.6373,-3.614,-3.614,-3.614,-3.6139,0,-3.5853,-3.5934,-3.5887,-3.5939,-3.6027,-3.5982,-3.607,-3.6065,-3.6072,-3.6121,-3.6064,-3.6111,-3.6067,-3.6111,-3.6087,-3.6168,-3.6179,-3.617,-3.6162,-3.6174,-3.6175,-3.6187,-3.6174,-3.6146,-3.6145,-3.6143,-3.6142,0,-3.606,-3.6032,-3.6119,-3.6112,-3.6112,-3.6177,-3.6171,-3.6218,-3.6202,-3.6266,-3.6278,-3.6253,-3.6301,-3.6273,-3.6323,-3.6306,-3.6412,-3.639,-3.6407,-3.64,-3.648,-3.6471,-3.6748,-3.6781,-3.653,-3.6533,-3.6535,0,-3.6187,-3.6247,-3.6246,-3.6273,-3.6279,-3.6326,-3.635,-3.6309,-3.6336,-3.6354,-3.6399,-3.6442,-3.6474,-3.6555,-3.6541,-3.6579,-3.6556,-3.665,-3.6561,-3.657,-3.6554,-3.655,-3.6554,-3.6668,-3.6671,-3.6673,-3.6675,0,-3.6415,-3.6398,-3.6434,-3.6466,-3.6496,-3.652,-3.6538,-3.6565,-3.6523,-3.6557,-3.6604,-3.6629,-3.6679,-3.6721,-3.6753,-3.6755,-3.6708,-3.6703,-3.6723,-3.6734,-3.674,-3.6735,-3.6453,-3.6697,-3.6694,-3.6693,-3.6692,-3.6691,-3.6584,-3.6633,-3.6638,-3.6681,-3.669,-3.6708,-3.6751,-3.6739,-3.6778,-3.6813,-3.6787,-3.6843,-3.6852,-3.6889,-3.6898,-3.6941,-3.6903,-3.6932,-3.6939,-3.6946,-3.6956,-3.6735,-3.6947,-3.6946,-3.6945,-3.6945,-3.6944,0,-3.6807,-3.6806,-3.6845,-3.6872,-3.6905,-3.6856,-3.6874,-3.6904,-3.6954,-3.6966,-3.6997,-3.7051,-3.7092,-3.7081,-3.7117,-3.7154,-3.7133,-3.7165,-3.716,-3.7161,-3.6989,-3.6967,-3.7181,-3.7181,-3.7181,-3.7181,-3.7181,-3.718,-3.6926,-3.7005,-3.6988,-3.707,-3.7069,-3.7122,-3.7135,-3.7151,-3.716,-3.7222,-3.7255,-3.7247,-3.725,-3.7285,-3.732,-3.7316,-3.7331,-3.737,-3.7358,-3.7197,-3.7174,-3.7151,-3.713,-3.7374,-3.7375,-3.7525,-3.7527,-3.7528]},{"header":{"parameterUnit":"m.s-1","parameterCategory":1,"la1":30.2991,"la2":30.254,"lo1":-89.0895,"lo2":-89.0444,"dy":0.0017,"dx":0.0017,"nx":28,"ny":28,"refTime":"2024-08-30T09:00:00:Z","depth":0,"parameterNumber":3,"parameterNumberName":"V-component_of_WINDS"},"data":[0,0,0,0,0,0,0,0,0,0,0,0,0,0,0,0,0,0,0,0,0,0,0,0,0,0,0,0,0,0,0,0,0,0,0,0,0,0,0,0,0,0,0,0,0,0,0,0,0,0,0,0,0,0,0,0,0,0,0.293,0.2931,0,0.3026,0.3027,0.3028,0.2988,0.2986,0.2983,0.2981,0.3088,0.3093,0.3098,0,0,0,0,0,0,0,0,0,0,0,0,0,0.2723,0.2727,0.293,0.2931,0.2932,0.3025,0.3027,0.3028,0.2988,0.2986,0.2983,0.298,0.3086,0.3092,0.3098,0,0,0,0,0,0,0,0,0,0,0,0,0,0.2816,0.2728,0.293,0.2924,0.2924,0.3025,0.3027,0.3028,0.2989,0.2985,0.2982,0.2979,0.3084,0.3091,0.3099,0.3214,0,0,0.3122,0.3125,0,0,0,0,0,0,0,0,0.281,0.2823,0.2923,0.2924,0.2925,0.2991,0.2993,0.3091,0.299,0.2965,0.2981,0.2977,0.3059,0.3068,0.3094,0.3219,0.3224,0.3122,0.3127,0.313,0.3132,0,0,0,0,0,0,0,0.2804,0.2819,0.2968,0.2925,0.2926,0.2919,0.2929,0.3011,0.303,0.2967,0.2964,0.2975,0.3059,0.3087,0.3096,0.3225,0.3122,0.3129,0.3133,0.3136,0.3454,0.3458,0,0,0,0,0,0,0.2796,0.2814,0.2965,0.2971,0.2858,0.2926,0.2936,0.2974,0.3029,0.3034,0.2978,0.2973,0.3076,0.3088,0.31,0.3241,0.313,0.3137,0.3141,0.345,0.3455,0.3459,0,0,0,0,0,0,0.2792,0.281,0.2961,0.2892,0.291,0.2933,0.2975,0.2977,0.3005,0.3038,0.3042,0.3003,0.3074,0.3089,0.3186,0.3244,0.314,0.3147,0.3445,0.3452,0.3457,0.3523,0,0,0,0,0,0,0.2786,0.2809,0.285,0.2893,0.2914,0.3043,0.2979,0.2982,0.3017,0.3012,0.3062,0.3067,0.3072,0.3175,0.3194,0.3253,0.3153,0.344,0.3448,0.3455,0.3516,0.3531,0.3543,0,0,0,0,0,0.2779,0.2866,0.2853,0.2871,0.2966,0.3047,0.3059,0.306,0.3022,0.3066,0.3087,0.3066,0.3234,0.3186,0.3206,0.3268,0.3437,0.3446,0.3455,0.351,0.3528,0.3543,0,0,0,0,0,0,0.2833,0.2872,0.2857,0.296,0.3,0.304,0.3095,0.3079,0.3133,0.3125,0.3127,0.3139,0.324,0.3263,0.3208,0.3385,0.333,0.3344,0.3365,0.3383,0.3396,0.3389,0.3159,0,0,0,0,0,0.2856,0.2915,0.2947,0.3036,0.3056,0.3072,0.3107,0.3104,0.3147,0.3165,0.3193,0.3238,0.3301,0.3343,0.3403,0.3519,0.3531,0.3572,0.3585,0.3596,0.3609,0.3675,0.3694,0.3488,0.3488,0.3488,0,0,0.2906,0.2935,0.2972,0.3047,0.3078,0.3142,0.3087,0.3156,0.3205,0.3176,0.3269,0.3292,0.3342,0.345,0.3499,0.3473,0.3668,0.3608,0.3616,0.3623,0.3686,0.3706,0.3723,0.3494,0.3493,0.3492,0,0,0.303,0.3057,0.3134,0.3166,0.3212,0.3222,0.3241,0.3283,0.3297,0.3389,0.3369,0.3429,0.3537,0.3575,0.3608,0.3749,0.3732,0.3768,0.384,0.3905,0.3921,0.3936,0.3989,0.4007,0.378,0.378,0.378,0,0.3088,0.3181,0.3177,0.3249,0.3284,0.3258,0.3338,0.337,0.3435,0.3461,0.343,0.3567,0.3599,0.3716,0.3751,0.3777,0.3802,0.3763,0.3918,0.3933,0.3946,0.3997,0.4017,0.3784,0.3784,0.3783,0.3783,0,0.325,0.3315,0.3373,0.3434,0.3475,0.3551,0.3562,0.3605,0.36,0.3615,0.3712,0.3749,0.3817,0.3844,0.384,0.3963,0.3945,0.3916,0.3863,0.397,0.4018,0.4037,0.379,0.3789,0.3788,0.3787,0,0,0.3411,0.3469,0.3491,0.3519,0.3569,0.3621,0.3698,0.3762,0.38,0.3846,0.3913,0.4005,0.3979,0.4017,0.4018,0.4074,0.4187,0.4039,0.404,0.4067,0.4328,0.4351,0.4373,0.4175,0.4179,0.4182,0.4324,0,0.3541,0.3672,0.3672,0.3794,0.3856,0.3833,0.3901,0.3941,0.3957,0.4015,0.4034,0.41,0.4059,0.4083,0.4137,0.4161,0.4239,0.4151,0.4241,0.4244,0.4231,0.4397,0.4421,0.4554,0.4343,0.4346,0.4348,0,0.371,0.376,0.3888,0.393,0.3957,0.4016,0.4077,0.4131,0.4177,0.4185,0.4228,0.422,0.4302,0.4244,0.4359,0.4299,0.4336,0.4354,0.4359,0.4369,0.4304,0.4415,0.4596,0.4617,0.4377,0.4375,0.4372,0,0.3818,0.3917,0.4007,0.4032,0.4083,0.4126,0.415,0.4193,0.4232,0.4286,0.4312,0.4376,0.4411,0.4462,0.4473,0.4429,0.459,0.4532,0.4602,0.4602,0.4638,0.4636,0.4831,0.4658,0.4658,0.4658,0.4657,0,0.3964,0.4044,0.4056,0.4112,0.4202,0.4202,0.4293,0.4314,0.4352,0.4414,0.4399,0.4458,0.4467,0.453,0.4539,0.4635,0.4651,0.4663,0.4665,0.4665,0.4664,0.4691,0.4684,0.4663,0.4662,0.4661,0.466,0,0.4101,0.4111,0.4209,0.4249,0.4261,0.4326,0.4363,0.4418,0.4432,0.4512,0.453,0.4555,0.4628,0.4643,0.473,0.4737,0.4851,0.4843,0.4835,0.4835,0.4906,0.49,0.5126,0.5158,0.4962,0.4964,0.4965,0,0.4194,0.4255,0.4302,0.4341,0.4367,0.443,0.447,0.4474,0.4517,0.4575,0.4624,0.4695,0.4752,0.4871,0.4898,0.4966,0.4961,0.5035,0.4971,0.4971,0.4966,0.4963,0.497,0.5049,0.5051,0.5052,0.5054,0,0.4361,0.4363,0.4419,0.4479,0.4527,0.4574,0.4619,0.4653,0.4664,0.4713,0.4786,0.483,0.4919,0.4991,0.5059,0.5087,0.5075,0.5073,0.5094,0.5097,0.5091,0.5098,0.4872,0.5069,0.5067,0.5066,0.5065,0.5065,0.4481,0.4535,0.4576,0.4641,0.4675,0.4718,0.4772,0.4793,0.4853,0.4924,0.4923,0.5005,0.5052,0.5141,0.5174,0.524,0.5217,0.5246,0.5254,0.5262,0.527,0.5078,0.5252,0.5252,0.5252,0.5251,0.5251,0,0.4648,0.4674,0.4733,0.4796,0.4848,0.4827,0.4877,0.4923,0.4993,0.5037,0.5094,0.518,0.525,0.5283,0.5353,0.54,0.5396,0.5419,0.5417,0.5425,0.5285,0.5261,0.5421,0.5421,0.5421,0.5421,0.5421,0.5421,0.4742,0.4833,0.4841,0.495,0.4976,0.5053,0.5084,0.5125,0.5161,0.5256,0.5314,0.5334,0.5375,0.5448,0.5513,0.5521,0.555,0.5576,0.5582,0.5451,0.5434,0.5418,0.5396,0.5581,0.5582,0.5717,0.5718,0.5719]}]]